Вернуться в каталог

STARLINK-4332

АктивенСвязьSSO
NORAD 53190·PAYLOAD·🇺🇸 United States

Запущен Jul 22, 2022 с Vandenberg Space Force Base

Loading…

Ближайшие Пролёты (ближайшие 24 часа)

TLE

СвежийSource: CelesTrak SupGP

Эпоха: Sep 14, 2026, 22:05 UTC

1 53190C 22084B   26257.92062500  .00005031  00000+0  15621-3 0  2573
2 53190  97.2830 313.7783 0001407  88.2390 131.6729 15.33427608    12

Отслеживайте STARLINK-4332 в реальном времени с AllMySat

Download on the App Store